Retour au catalogue

STARLINK-34751

ActifCommunicationsVLEO
NORAD 65338·PAYLOAD·🇺🇸 United States

Lancé Aug 27, 2025 depuis Cape Canaveral Space Force Station

Loading…

Prochains Passages (prochaines 24 heures)

TLE

FraisSource: CelesTrak SupGP

Époque: Sep 14, 2026, 21:32 UTC

1 65338C 25189R   26257.89770833  .00035713  00000+0  11489-2 0  2577
2 65338  53.1597  46.4763 0001119  78.3054 341.6166 15.31672447    14

Suivez STARLINK-34751 en temps réel avec AllMySat

Download on the App Store